Location: Isles
(48.9125°N, 2.8272°E)
Time: 17:01:13
(UTC+00:00)

Cosmos 1943 Rocket - Pass Details

Date: 03 February 2023
Orbit: 811 x 844 km, 71.0° (Epoch: 30 March)

Event Time Altitude Azimuth Distance (km) Brightness Sun altitude
Rises 18:52:01 0° 335° (NNW) 3,414 5.7 -20.4°
Reaches altitude 10° 18:55:28 10° 356° (N) 2,476 4.7 -20.9°
Enters shadow 18:58:20 16° 26° (NNE) 2,058 3.9 -21.4°
